EW3533 Weather Reports


Display with metric or nautical units.
time (UTC)temp
F
wind
direction
speed
MPH
gust
MPH
rain 1hr
in
rain 24hr
in
rain mn
in
humidity
%
barometer
mb
20260904073034 68 211 0.0 2.0 0.00 0.66 0.00 94 1013.9
20260904071524 68 211 2.0 4.0 0.00 0.66 0.00 94 1013.4
20260904070023 67 225 0.0 2.0 0.00 0.66 0.00 94 1013.8
20260904064521 67 225 2.0 3.0 0.00 0.66 0.00 94 1013.8
20260904063019 68 226 0.0 1.0 0.00 0.66 0.00 94 1014.3
20260904061523 68 226 0.0 2.0 0.00 0.66 0.00 94 1014.3
20260904060017 68 226 0.0 2.0 0.00 0.66 0.00 94 1014.5
20260904054517 68 226 0.0 1.0 0.00 0.66 0.00 94 1014.4
20260904053018 68 226 0.0 2.0 0.00 0.66 0.00 94 1014.3
20260904051527 68 226 1.0 2.0 0.00 0.66 0.00 94 1014.2
20260904050014 68 226 0.0 2.0 0.00 0.66 0.00 94 1014.4
20260904044519 68 226 1.0 2.0 0.00 0.66 0.00 94 1014.3
20260904043013 68 227 0.0 2.0 0.00 0.66 0.00 94 1014.2
20260904041518 68 227 0.0 0.0 0.00 0.66 0.00 94 1014.5
20260904040010 68 227 0.0 2.0 0.00 0.66 0.00 94 1014.4
20260904034509 69 227 0.0 3.0 0.00 0.66 0.66 94 1014.3
20260904033008 70 226 0.0 2.0 0.00 0.66 0.66 94 1014.3
20260904031508 70 226 0.0 1.0 0.00 0.66 0.66 94 1014.2
20260904030007 70 226 0.0 3.0 0.00 0.66 0.66 94 1014.3
20260904024510 70 226 0.0 2.0 0.00 0.66 0.66 94 1014.0
20260904023006 69 226 0.0 3.0 0.00 0.66 0.66 94 1014.2
20260904021509 69 226 0.0 0.0 0.00 0.66 0.66 94 1014.0
20260904020005 70 226 0.0 0.0 0.00 0.66 0.66 94 1013.7
20260904014505 70 226 0.0 0.0 0.00 0.66 0.66 94 1014.0
20260904013005 71 226 1.0 5.0 0.00 0.66 0.66 94 1014.0
20260904011505 69 178 1.0 3.0 0.00 0.66 0.66 94 1013.8
20260904010104 69 178 0.0 1.0 0.00 0.66 0.66 93 1013.3
20260904004505 69 178 0.0 0.0 0.00 0.66 0.66 93 1013.2
20260904003003 70 178 0.0 0.0 0.00 0.66 0.66 93 1013.1
20260904001501 71 178 0.0 0.0 0.00 0.66 0.66 93 1012.8
20260904000001 71 178 0.0 2.0 0.00 0.66 0.66 94 1012.7
20260903234600 72 178 1.0 2.0 0.00 0.66 0.66 93 1012.8
20260903233059 72 178 0.0 3.0 0.00 0.66 0.66 94 1012.8
20260903231611 72 178 0.0 4.0 0.00 0.66 0.66 94 1012.5
20260903230111 72 163 0.0 1.0 0.00 0.66 0.66 94 1012.4
20260903224556 73 163 0.0 2.0 0.00 0.66 0.66 94 1012.3
20260903223106 72 163 0.0 1.0 0.00 0.66 0.66 94 1012.6
20260903221556 72 163 0.0 2.0 0.00 0.66 0.66 94 1012.6
20260903220105 73 163 1.0 5.0 0.00 0.66 0.66 94 1012.1
20260903214555 72 143 0.0 2.0 0.00 0.87 0.66 94 1011.4
20260903213056 73 143 1.0 4.0 0.00 0.87 0.66 94 1011.3
20260903211554 72 140 1.0 4.0 0.01 0.87 0.66 94 1011.2
20260903210054 72 141 3.0 5.0 0.03 0.87 0.66 94 1011.8
20260903204600 71 61 1.0 4.0 0.05 0.87 0.66 94 1012.1
20260903203051 71 114 1.0 4.0 0.07 0.87 0.66 94 1012.7
20260903201550 71 355 2.0 5.0 0.08 0.86 0.65 94 1014.2
20260903200050 70 331 1.0 9.0 0.07 0.83 0.62 93 1014.8
20260903194551 71 272 4.0 7.0 0.14 0.82 0.61 93 1014.9
20260903193045 70 49 1.0 3.0 0.28 0.80 0.59 93 1013.8
20260903191555 70 46 1.0 2.0 0.27 0.78 0.56 93 1013.9
20260903190045 70 34 2.0 6.0 0.53 0.76 0.55 92 1014.1
20260903184544 71 355 1.0 8.0 0.45 0.67 0.46 92 1014.7
20260903183103 72 323 2.0 3.0 0.28 0.51 0.30 91 1013.3
20260903181542 73 323 1.0 5.0 0.28 0.51 0.30 90 1013.3
20260903180040 75 274 2.0 6.0 0.01 0.23 0.02 91 1012.8
20260903174539 75 138 1.0 3.0 0.00 0.22 0.01 90 1011.7
20260903173039 75 138 1.0 3.0 0.00 0.22 0.01 90 1011.7
20260903171537 76 138 1.0 3.0 0.00 0.22 0.01 91 1012.2
20260903170038 76 138 0.0 3.0 0.01 0.22 0.01 91 1012.2
20260903164536 76 138 2.0 4.0 0.01 0.22 0.01 92 1012.2
20260903163035 76 229 0.0 3.0 0.01 0.22 0.01 92 1012.5
20260903161550 76 230 0.0 2.0 0.01 0.22 0.01 93 1012.8
20260903160032 75 160 0.0 3.0 0.00 0.21 0.00 94 1013.0
20260903154527 74 61 0.0 2.0 0.00 0.21 0.00 94 1013.3
20260903153027 73 58 0.0 2.0 0.00 0.21 0.00 94 1013.6
20260903151524 74 173 2.0 3.0 0.00 0.21 0.00 95 1013.3
20260903150021 73 174 0.0 4.0 0.00 0.21 0.00 94 1013.2
20260903144525 72 94 0.0 1.0 0.00 0.21 0.00 94 1013.1
20260903143021 72 94 1.0 3.0 0.00 0.21 0.00 95 1012.6
20260903141516 72 86 0.0 2.0 0.00 0.21 0.00 95 1012.5
20260903140017 71 86 1.0 2.0 0.00 0.21 0.00 94 1012.7
20260903134515 72 87 0.0 2.0 0.00 0.21 0.00 94 1012.9
20260903133019 71 86 1.0 3.0 0.00 0.21 0.00 95 1012.9
20260903131521 71 88 0.0 3.0 0.00 0.21 0.00 94 1012.9
20260903130013 71 344 1.0 3.0 0.00 0.21 0.00 94 1013.0
20260903124515 71 344 0.0 3.0 0.00 0.21 0.00 94 1013.1
20260903123012 71 344 0.0 4.0 0.00 0.21 0.00 94 1013.1
20260903121530 71 345 1.0 3.0 0.00 0.21 0.00 94 1013.1
20260903120010 70 11 1.0 3.0 0.00 0.21 0.00 94 1013.1
20260903114509 71 153 1.0 3.0 0.00 0.21 0.00 94 1013.0
20260903113010 70 154 0.0 2.0 0.00 0.21 0.00 94 1012.9
20260903111507 70 154 0.0 1.0 0.00 0.21 0.00 94 1012.7
20260903110005 70 154 0.0 1.0 0.00 0.21 0.00 94 1012.6
20260903104504 70 154 0.0 0.0 0.00 0.21 0.00 94 1012.5
20260903103003 70 154 0.0 0.0 0.00 0.21 0.00 94 1012.4
20260903101501 69 154 0.0 0.0 0.00 0.21 0.00 94 1012.3
20260903100100 69 154 0.0 1.0 0.00 0.21 0.00 94 1012.3
20260903100003 69 154 0.0 1.0 0.00 0.21 0.00 94 1012.3
20260903094609 69 154 0.0 2.0 0.00 0.21 0.00 94 1012.1
20260903093103 68 154 1.0 2.0 0.00 0.21 0.00 94 1012.2
20260903091604 68 152 0.0 1.0 0.00 0.21 0.00 94 1012.1
20260903090055 68 152 0.0 0.0 0.00 0.21 0.00 94 1011.9
20260903084554 68 152 0.0 0.0 0.00 0.22 0.00 94 1011.8
20260903083058 68 152 0.0 0.0 0.00 0.22 0.00 93 1011.9
20260903081552 69 152 0.0 0.0 0.00 0.22 0.00 94 1011.9
20260903080050 69 152 0.0 0.0 0.00 0.22 0.00 94 1011.8
20260903074548 68 152 0.0 0.0 0.00 0.22 0.00 93 1011.8